Regional Weather Roundup
Issued by NWS

Home | Current Version | Previous Version | Text Only | Print | Product List | Glossary On
Versions: 1 2 3 4 5 6 7 8 9 10 11 12 13 14 15 16 17 18 19 20 21 22 23 24 25 26 27 28 29 30 31 32 33 34 35 36 37 38 39 40 41 42 43 44 45 46 47 48 49 50
000
ASUS43 KLSX 250659
RWRMO

WEATHER SUMMARY FOR MISSOURI
NATIONAL WEATHER SERVICE SPRINGFIELD MO
200 AM CDT SAT OCT 25 2014

NOTE: "FAIR" INDICATES FEW OR NO CLOUDS BELOW 12,000 FEET WITH NO
       SIGNIFICANT WEATHER AND/OR OBSTRUCTIONS TO VISIBILITY.
       CURRENT SKY AND/OR WEATHER CONDITIONS ARE NOT AVAILABLE FOR
       CHILLICOTHE AND FARMINGTON.

MOZ001>031-035>038-043-044-053-054-250800-
...NORTHERN AND WESTERN MISSOURI...

CITY           SKY/WX    TMP DP  RH WIND       PRES   REMARKS
KANSAS CTY INT CLEAR     60  59  96 W6        30.00R
KANSAS C DTWN  CLEAR     65  61  87 CALM      29.99S
LEE`S SUMMIT   CLEAR     61  59  93 SW8       30.00F
ST JOSEPH      FOG       53  53 100 N5        30.01R VSB<1/4
KIRKSVILLE     CLEAR     57  56  96 W5        29.98F FOG

$$
MOZ066>068-077>081-088>096-101>105-250800-
...SOUTHWEST MISSOURI...

CITY           SKY/WX    TMP DP  RH WIND       PRES   REMARKS
SPRINGFIELD    CLEAR     58  56  93 S3        30.05R
JOPLIN         CLEAR     66  60  81 SW10      30.05R

$$
MOZ032>034-039>042-045>050-055>058-069>072-250800-
...CENTRAL MISSOURI...

CITY           SKY/WX    TMP DP  RH WIND       PRES   REMARKS
COLUMBIA       CLEAR     63  60  90 W7        30.00S
JEFFERSON CITY MOCLDY    61  58  90 CALM      29.99F
ROLLA          CLEAR     60  57  89 SW12      30.00F
SEDALIA        PTCLDY    65  60  84 SW12      30.01S
OSAGE BEACH    CLEAR     59  55  88 SW3       30.02F

$$
MOZ051-052-059>065-250800-
...EAST CENTRAL MISSOURI...

CITY           SKY/WX    TMP DP  RH WIND       PRES   REMARKS
ST LOUIS INTL  PTCLDY    64  57  78 W3        29.98F
SPIRIT OF STL  CLEAR     64  58  80 SW10      29.97F
ST CHARLES     PTCLDY    54  51  90 CALM      29.97F

$$
MOZ072>076-082>087-097>100-106>115-250800-
...SOUTH CENTRAL AND SOUTHEAST MISSOURI...

CITY           SKY/WX    TMP DP  RH WIND       PRES   REMARKS
CAPE GIRARDEAU CLEAR     55  52  89 CALM      30.04F
FARMINGTON     CLEAR     59  55  88 S6        30.04S
POPLAR BLUFF   CLEAR     53  50  89 CALM      30.04S FOG
WEST PLAINS    CLEAR     59  56  89 W5        30.07R

$$



USA.gov is the U.S. government's official web portal to all federal, state and local government web resources and services.